{"data":{"norad_id":61063,"intl_designator":"2024-164P","name":"STARLINK-32350","alt_names":[],"object_type":"PAYLOAD","status":"ACTIVE","operator":null,"country":"US","launch_date":"2024-09-13","launch_site_code":"AFWTR","launch_vehicle":null,"mission":null,"orbit_class":"UNKNOWN","rcs_meters":null,"size_class":null,"mass_kg":null,"dimensions":null,"purposes":["comms"],"wikipedia_slug":null,"has_3d_model":false,"image_url":null,"decayed_at":null,"tle_current":{"epoch":"2026-09-20T07:15:24.075072Z","epoch_age_seconds":209186,"freshness":"STALE","line1":"1 61063U 24164P   26263.30236198  .00001087  00000+0  46767-4 0  9993","line2":"2 61063  53.1603 265.7461 0001291  89.3940 270.7209 15.31707457113296","mean_motion":15.31707457,"eccentricity":0.0001291,"inclination_deg":53.1603,"raan_deg":265.7461,"arg_perigee_deg":89.394,"mean_anomaly_deg":270.7209,"bstar":4.6767e-5,"rev_number":11329,"period_min":94.012730265111,"perigee_km":469.83357923652,"apogee_km":471.6019535372,"semimajor_km":6848.8547663869,"source":"CELESTRAK","updated_at":"2026-09-22T09:00:49.333836Z"}}}